sat.trackr.live / text

‹ back to catalog

2023-104A

NORAD 57424 · 2023-104A

PAYLOAD ACTIVE UNKNOWN

§ Identity

Operator
Country
PRC
Launch date
2023-07-23
Launch site
TAISC
Launch vehicle
Mass (kg)
RCS (m²)

External: N2YO · Heavens-Above · Gunter

§ Orbital elements

Epoch: 2026-09-21T22:46:23.849760Z

Period
93.71 min
Inclination
97.2619°
Eccentricity
0.0008358
Mean motion
15.36685285 rev/d
Perigee alt
450.2 km
Apogee alt
461.6 km
Semi-major
6,834.1 km
B*
2.1090e-4
RAAN
331.9280°
Arg perigee
123.3652°
Mean anomaly
236.8394°
Rev number
17,689

§ Raw data

2023-104A1 57424U 23104A   26264.94888715  .00007484  00000+0  21090-3 0  99992 57424  97.2619 331.9280 0008358 123.3652 236.8394 15.36685285176895

JSON: /api/v1/satellites/57424 · /tle

For live sub-satellite position, see the globe view (requires WebGL).

§ Visibility from observer

Set your observer location to see the next 7 days of passes ≥ 10°. The values pass through the URL so the page stays shareable.

No JS? Fill the form by hand. The geolocation button needs JavaScript.